User: anonymous   Login
Location: Columbia
(38.9520°N, 92.3340°W)
Time: 19:47:49
(UTC-05:00)
Language:

Iridium 52 - Orbit

View from above orbital plane
View from above orbital plane
View from above satellite
View from above satellite

Ground track
Ground track

The orbit data is extracted from the following two-line orbital elements,

1 25169U 98010A   17295.52943592 -.00000041 +00000-0 -21553-4 0  9991
2 25169 086.3918 297.1488 0002200 087.6757 272.4690 14.34217035029756
Epoch (UTC): 22 October 2017 12:42:23
Eccentricity: 0.0002200
inclination: 86.3918°
perigee height: 776 km
apogee height: 779 km
right ascension of ascending node: 297.1488°
argument of perigee: 87.6757°
revolutions per day: 14.34217035
mean anomaly at epoch: 272.4690°
orbit number at epoch: 2975

The dashed part of the orbit path shows where the satellite is in the earth's shadow,  

DLR